Location: Napoli
(40.8639°N, 14.2562°E)
Time: 12:36:54
(UTC+01:00)

ISS - Visible Passes

Search period start: 12 December 2025 00:00
Search period end: 22 December 2025 00:00
Orbit: 416 x 420 km, 51.6° (Epoch: 12 December)

Date Brightness Start Highest point End Pass type
(mag) Time Alt. Az. Time Alt. Az. Time Alt. Az.
12 Dec -1.9 06:24:40 10° SSW 06:27:45 34° SE 06:30:51 10° ENE visible
13 Dec -1.0 05:37:24 10° S 05:39:56 20° SE 05:42:29 10° E visible
14 Dec -0.5 04:50:56 10° SSE 04:52:09 12° SE 04:53:23 10° ESE visible
14 Dec -3.8 06:25:06 10° WSW 06:28:28 80° NW 06:31:51 10° NE visible
15 Dec -3.2 05:38:47 25° SSW 05:40:30 59° SE 05:43:49 10° ENE visible
16 Dec -1.5 04:53:42 25° E 04:53:42 25° E 04:55:36 10° ENE visible
16 Dec -2.9 06:26:41 13° W 06:29:18 33° NNW 06:32:24 10° NE visible
17 Dec -3.5 05:41:15 49° NNW 05:41:15 49° NNW 05:44:27 10° NE visible
18 Dec -1.1 04:55:35 16° NE 04:55:35 16° NE 04:56:24 10° NE visible
18 Dec -2.1 06:28:31 14° NW 06:30:12 19° NNW 06:32:43 10° NNE visible
19 Dec -2.1 05:42:39 22° N 05:42:39 22° N 05:44:44 10° NE visible
20 Dec -0.7 04:56:39 10° NE 04:56:39 10° NE 04:56:43 10° NE visible
20 Dec -1.6 06:29:35 11° NW 06:31:08 14° N 06:33:03 10° NNE visible
21 Dec -1.5 05:43:28 15° N 05:43:28 15° N 05:44:54 10° NNE visible
